Location: Lussas
(44.6119°N, 4.4726°E)
Time: 19:46:05
(UTC+00:00)

Cosmos 1782 - Pass Details

Date: 26 November 2020
Orbit: 537 x 551 km, 82.5° (Epoch: 27 January)

Event Time Altitude Azimuth Distance (km) Brightness Sun altitude
Exits shadow 06:04:59 - 333° (NNW) 2,322 5.6 -8.6°
Reaches altitude 10° 06:06:24 10° 323° (NW) 1,832 5.0 -8.4°
Maximum altitude 06:09:31 22° 272° (W) 1,232 4.1 -7.9°
Drops below altitude 10° 06:12:39 10° 221° (SW) 1,824 5.3 -7.3°
Sets 06:15:09 0° 206° (SSW) 2,714 6.3 -6.9°
